{"data":{"norad_id":29526,"epoch":"2026-09-19T20:33:23.190624Z","epoch_age_seconds":70010,"freshness":"FRESH","line1":"1 29526U 06051A   26262.85651841  .00000152  00000+0  00000+0 0  9998","line2":"2 29526   2.2420  79.9595 0004882  97.6037 164.0364  1.00273899 52217","mean_motion":1.00273899,"eccentricity":0.0004882,"inclination_deg":2.242,"raan_deg":79.9595,"arg_perigee_deg":97.6037,"mean_anomaly_deg":164.0364,"bstar":0,"rev_number":5221,"period_min":1436.0666278669,"perigee_km":35765.417807836,"apogee_km":35806.586873488,"semimajor_km":42164.139340662,"source":"CELESTRAK","updated_at":"2026-09-20T09:00:35.128497Z"}}